Weather in Pontevedra

Spain     42°26′01″N   8°38′23″W
temp.,
°C
wind,
m/s
gust,
m/s
humid.,
%
clouds,
%
prec.,
mm/h
press.,
hPa
HPBL,
m
17 may, tue
tue1723:00+16s412790 0.0 1019870
02:00+15se388759 0.0 1018338
05:00+15s31194100 1.3 1016774
08:00+16s41397100 5.4 1017969
11:00+16ssw5129769 3.0 1019934
14:00+17ssw51196100 5.0 1020905
17:00+15wsw279898 1.1 1020414
20:00+16s139898 1.3 1020232
18 may, wed
wed1823:00+15ssw1299100 0.2 1021181
02:00+15ssw1299100 0.3 1019184
05:00+15s1199100 0.3 101868
08:00+15ssw2498100 0.6 1018225
11:00+14sw1395100 1.4 1020244
14:00+18sw356376 1.5 10201002
17:00+18wsw345381 0.0 1019908
20:00+17wsw226469 0.0 1019606
19 may, thu
thu1923:00+12ene119485 0.0 102113
02:00+11ene2293100 0.0 102047
05:00+10ne2389100 0.0 101962
08:00+11ne2382100 0.0 101984
11:00+18n115276 0.0 1019519
14:00+22wsw324260 0.0 10191001
17:00+21w3245100 0.0 1018619
20:00+18wsw1260100 0.0 1018199
20 may, fri
fri2023:00+14e1182100 0.0 101919
02:00+13ne2283100 0.0 101957
05:00+11ne248897 0.0 101983
08:00+12ne2483100 0.0 101990
11:00+21nne245250 0.0 1019430
14:00+28nw222975 0.0 1018982
17:00+29w3329100 0.0 1016694
20:00+26nne2548100 0.0 1016222
21 may, sat
sat2123:00+19nne377186 0.0 1016136
02:00+17ne3578100 0.0 101492
05:00+17ne3575100 0.0 101379
08:00+18ne3471100 0.0 101171
11:00+28ssw1242100 0.0 1011316
14:00+32wsw2331100 0.0 1011791
17:00+29wsw2433100 0.0 1011484
20:00+25ne115199 0.0 101138